This is the latest recevied weather packets stored in our database for station/object PA3CPS. If no packets are shown the sender has not sent any weather packets the latest 1 day(s).
| Time | Temp. | Humidity | Pressure | Rain* | Wind** | Luminosity | Snow |
|---|---|---|---|---|---|---|---|
| 1777997162 | 11.67° C | 83% | 1009.5 hPa | 0 mm | 2.24 m/s, 332° | 104 W/m² | - |
| 1777996863 | 11.67° C | 83% | 1009.6 hPa | 0 mm | 2.68 m/s, 328° | 100 W/m² | - |
| 1777996563 | 11.67° C | 83% | 1009.6 hPa | 0 mm | 2.68 m/s, 356° | 121 W/m² | - |
| 1777996263 | 11.67° C | 82% | 1009.5 hPa | 0 mm | 2.24 m/s, 355° | 128 W/m² | - |
| 1777995963 | 12.22° C | 82% | 1009.7 hPa | 0 mm | 1.79 m/s, 331° | 135 W/m² | - |
| 1777995663 | 12.22° C | 82% | 1009.7 hPa | 0 mm | 2.68 m/s, 358° | 125 W/m² | - |
| 1777995360 | 12.22° C | 82% | 1009.6 hPa | 0 mm | 2.68 m/s, 10° | 128 W/m² | - |
| 1777995059 | 12.22° C | 82% | 1009.6 hPa | 0 mm | 2.24 m/s, 20° | 149 W/m² | - |
| 1777994757 | 12.22° C | 82% | 1009.6 hPa | 0 mm | 3.13 m/s, 345° | 130 W/m² | - |
| 1777994456 | 12.22° C | 81% | 1009.7 hPa | 0 mm | 2.24 m/s, 344° | 102 W/m² | - |
| 1777994153 | 12.22° C | 81% | 1009.8 hPa | 0 mm | 4.02 m/s, 10° | 123 W/m² | - |
| 1777993852 | 12.22° C | 82% | 1009.7 hPa | 0 mm | 1.34 m/s, 345° | 148 W/m² | - |
| 1777993550 | 12.22° C | 81% | 1009.7 hPa | 0 mm | 2.68 m/s, 345° | 132 W/m² | - |
| 1777993249 | 12.22° C | 82% | 1009.6 hPa | 0 mm | 2.68 m/s, 29° | 134 W/m² | - |
| 1777992946 | 12.22° C | 81% | 1009.6 hPa | 0 mm | 1.79 m/s, 347° | 121 W/m² | - |
| 1777992643 | 12.22° C | 82% | 1009.6 hPa | 0 mm | 2.68 m/s, 14° | 146 W/m² | - |
| 1777992341 | 12.22° C | 81% | 1009.7 hPa | 0 mm | 1.79 m/s, 356° | 176 W/m² | - |
| 1777991737 | 12.22° C | 81% | 1009.6 hPa | 0 mm | 1.79 m/s, 353° | 176 W/m² | - |
| 1777991432 | 12.22° C | 81% | 1009.8 hPa | 0 mm | 2.68 m/s, 358° | 181 W/m² | - |
| 1777991130 | 12.22° C | 81% | 1009.8 hPa | 0 mm | 2.68 m/s, 21° | 213 W/m² | - |
| 1777990829 | 12.22° C | 81% | 1009.9 hPa | 0 mm | 2.68 m/s, 16° | 195 W/m² | - |
| 1777990528 | 12.22° C | 81% | 1009.8 hPa | 0 mm | 1.79 m/s, 20° | 221 W/m² | - |
| 1777990225 | 12.22° C | 81% | 1009.8 hPa | 0 mm | 2.24 m/s, 11° | 250 W/m² | - |
| 1777989923 | 12.22° C | 81% | 1009.9 hPa | 0 mm | 2.68 m/s, 355° | 200 W/m² | - |
| 1777989625 | 12.22° C | 81% | 1010 hPa | 0 mm | 1.34 m/s, 16° | 209 W/m² | - |
* Rain latest hour (hover to see other rain measurements)
** Current wind speed in m/s (hover to see current wind gust speed)